Flag for United Arab Emirates Weather past 2 weeks in Abu Dhabi, Abu Dhabi, United Arab Emirates

Now
102 °F

Sunny.


Feels Like: 99 °F
Forecast: 93 / 100 °F
Wind: 16 mph from Northwest

Location: Abu Dhabi Bateen Airport

Current Time: May 27, 2015 at 2:06:33 PM

Latest Report: May 27, 2015 at 1:00 PM


Visibility: 10 mi

Pressure: 29.74 "Hg

Humidity: 17%

Dew point: 50 °F

Location of Abu DhabiLocation

Historic Weather in Abu Dhabi — Graph

°F

Abu Dhabi temperature yesterday

Maximum temperature yesterday: 102 °F (at 12:00 PM)
Minimum temperature yesterday: 84 °F (at 5:00 AM)
Average temperature yesterday: 94 °F

Past Weeks' High & Low Weather Summary

 TemperatureHumidityPressure
High111 °F (May 13, 2:00 PM)89% (May 20, 4:00 AM)29.80 "Hg (May 20, 4:00 AM)
Low77 °F (May 19, 8:00 AM)6% (May 14, 1:00 PM)29.62 "Hg (May 16, 5:00 PM)
Average92 °F42%29.70 "Hg
* Reported May 12 1:00 PM — May 27 1:00 PM, Abu Dhabi, Weather by CustomWeather, © 2015

Note: Actual official high and low records may vary slightly from our data, if they occured in-between our weather recording intervals... More about our weather records

Advertising

Abu Dhabi weather history for previous 24 hours

 ConditionsComfort  
Time TempWeatherWind HumidityBarometerVisibility
1:00 PM
Wed, May 27
102 °FSunny.16 mph17%29.74 "Hg10 mi
12:00 PM102 °FPassing clouds.14 mph17%29.77 "HgN/A
11:00 AM102 °FPassing clouds.16 mph15%29.77 "HgN/A
10:00 AM102 °FSunny.14 mph13%29.77 "Hg10 mi
9:00 AM91 °FSunny.7 mph56%29.77 "Hg10 mi
8:00 AM88 °FSunny.6 mph59%29.74 "Hg10 mi
7:00 AM93 °FPassing clouds.3 mph34%29.71 "HgN/A
6:00 AM91 °FSunny.8 mph30%29.71 "Hg10 mi
5:00 AM93 °FClear.9 mph28%29.68 "Hg10 mi
4:00 AM93 °FClear.13 mph28%29.68 "Hg10 mi
3:00 AM93 °FClear.14 mph28%29.68 "Hg10 mi
2:00 AM93 °FClear.16 mph28%29.68 "Hg10 mi
1:00 AM93 °FClear.14 mph32%29.71 "Hg10 mi
12:00 AM93 °FClear.17 mph34%29.74 "Hg10 mi
11:00 PM
Tue, May 26
93 °FPassing clouds.8 mph34%29.74 "HgN/A
10:00 PM90 °FClear.2 mph49%29.74 "Hg10 mi
9:00 PM93 °FPassing clouds.5 mph36%29.74 "HgN/A
8:00 PM95 °FPassing clouds.9 mph28%29.74 "HgN/A
7:00 PM97 °FSunny.13 mph25%29.71 "Hg10 mi
6:00 PM97 °FSunny.13 mph27%29.71 "Hg10 mi
5:00 PM99 °FSunny.15 mph27%29.68 "Hg10 mi
4:00 PM100 °FSunny.16 mph21%29.68 "Hg10 mi
3:00 PM100 °FPassing clouds.16 mph22%29.68 "HgN/A
2:00 PM100 °FSunny.15 mph22%29.71 "Hg10 mi
Weather by CustomWeather, © 2015

See weather overviewHow to use our weather pages